Zurück zum Katalog

DELTA 1 DEB

AktivPO
NORAD 8956·DEBRIS·🇺🇸 United States

Gestartet Jan 22, 1975 von Vandenberg Space Force Base

Loading…

Nächste Überflüge (nächste 24 Stunden)

TLE

AktuellSource: Space-Track

Epoche: Sep 14, 2026, 00:18 UTC

1 08956U 75004AN  26257.01306399  .00001395  00000-0  16181-3 0  9995
2 08956  98.3691  88.3145 0023136 352.6587   7.4285 14.87032731675174

Verfolge DELTA 1 DEB in Echtzeit mit AllMySat

Download on the App Store